TPC724 BGSF-BGKK

Flight info

Callsign TPC724
Flight time N/A
Altitude 11000
Route M027F110 WUTAN1B WUTAN UW28 MASIK DCT SOMEV DCT
Aircraft C208/L-SDFGR/C

Departure

Time N/A
Airport Kangerlussuaq International Airport (BGSF)

Arrival

Time 2026-05-06 03:38
Airport Kulusuk Airport (BGKK)
Time Latitude Longitude Altitude Speed Heading
2026-05-06 02:48 66.18800 -41.76527 11291 ft 170 kts 104°
2026-05-06 02:48 66.18469 -41.73713 11285 ft 170 kts 104°
2026-05-06 02:49 66.18138 -41.70905 11285 ft 170 kts 104°
2026-05-06 02:49 66.17809 -41.68132 11290 ft 169 kts 104°
2026-05-06 02:49 66.17478 -41.65342 11302 ft 168 kts 104°
2026-05-06 02:49 66.17152 -41.62589 11306 ft 169 kts 104°
2026-05-06 02:50 66.16816 -41.59755 11284 ft 170 kts 104°
2026-05-06 02:50 66.16481 -41.56949 11280 ft 171 kts 104°
2026-05-06 02:50 66.16148 -41.54155 11290 ft 169 kts 104°
2026-05-06 02:50 66.15817 -41.51385 11299 ft 169 kts 104°
2026-05-06 02:51 66.15485 -41.48618 11319 ft 169 kts 104°
2026-05-06 02:51 66.15155 -41.45847 11324 ft 170 kts 104°
2026-05-06 02:51 66.14821 -41.43062 11307 ft 169 kts 104°
2026-05-06 02:51 66.14484 -41.40273 11329 ft 167 kts 104°
2026-05-06 02:52 66.14159 -41.37558 11357 ft 167 kts 104°
2026-05-06 02:52 66.13827 -41.34800 11358 ft 168 kts 105°
2026-05-06 02:52 66.13491 -41.32024 11370 ft 168 kts 105°
2026-05-06 02:52 66.13162 -41.29300 11387 ft 168 kts 105°
2026-05-06 02:53 66.12826 -41.26538 11392 ft 168 kts 104°
2026-05-06 02:53 66.12489 -41.23770 11390 ft 168 kts 104°
2026-05-06 02:53 66.12153 -41.21003 11392 ft 169 kts 104°
2026-05-06 02:53 66.11814 -41.18224 11404 ft 169 kts 104°
2026-05-06 02:54 66.11478 -41.15476 11407 ft 169 kts 104°
2026-05-06 02:54 66.11139 -41.12707 11421 ft 169 kts 104°
2026-05-06 02:54 66.10798 -41.09920 11416 ft 169 kts 104°
2026-05-06 02:54 66.10460 -41.07168 11416 ft 169 kts 105°
2026-05-06 02:55 66.10120 -41.04399 11430 ft 169 kts 105°
2026-05-06 02:55 66.09779 -41.01631 11415 ft 169 kts 105°
2026-05-06 02:55 66.09439 -40.98874 11431 ft 168 kts 105°
2026-05-06 02:55 66.09096 -40.96106 11416 ft 168 kts 105°
2026-05-06 02:56 66.08757 -40.93378 11419 ft 168 kts 105°
2026-05-06 02:56 66.08415 -40.90614 11427 ft 168 kts 105°
2026-05-06 02:56 66.08075 -40.87871 11444 ft 169 kts 105°
2026-05-06 02:56 66.07728 -40.85088 11449 ft 169 kts 105°
2026-05-06 02:57 66.07381 -40.82317 11437 ft 169 kts 104°
2026-05-06 02:57 66.07039 -40.79583 11426 ft 169 kts 104°
2026-05-06 02:57 66.06690 -40.76796 11414 ft 170 kts 104°
2026-05-06 02:57 66.06345 -40.74048 11423 ft 169 kts 104°
2026-05-06 02:58 66.06001 -40.71305 11438 ft 168 kts 104°
2026-05-06 02:58 66.05655 -40.68550 11444 ft 168 kts 104°
2026-05-06 02:58 66.05308 -40.65795 11436 ft 169 kts 104°
2026-05-06 02:58 66.04961 -40.63037 11427 ft 169 kts 104°
2026-05-06 02:59 66.04611 -40.60267 11440 ft 169 kts 104°
2026-05-06 02:59 66.04266 -40.57531 11440 ft 169 kts 104°
2026-05-06 02:59 66.03915 -40.54778 11424 ft 169 kts 104°
2026-05-06 02:59 66.03561 -40.51998 11407 ft 170 kts 104°
2026-05-06 03:00 66.03210 -40.49239 11406 ft 170 kts 104°
2026-05-06 03:00 66.02856 -40.46465 11409 ft 169 kts 104°
2026-05-06 03:00 66.02506 -40.43728 11403 ft 169 kts 104°
2026-05-06 03:00 66.02154 -40.40965 11413 ft 169 kts 104°
2026-05-06 03:01 66.01800 -40.38213 11425 ft 168 kts 104°
2026-05-06 03:01 66.01452 -40.35503 11428 ft 168 kts 104°
2026-05-06 03:01 66.01096 -40.32728 11422 ft 168 kts 105°
2026-05-06 03:01 66.00742 -40.29975 11421 ft 169 kts 105°
2026-05-06 03:02 66.00389 -40.27232 11425 ft 169 kts 105°
2026-05-06 03:02 66.00038 -40.24523 11430 ft 168 kts 105°
2026-05-06 03:02 65.99683 -40.21770 11425 ft 169 kts 105°
2026-05-06 03:02 65.99327 -40.19027 11445 ft 169 kts 105°
2026-05-06 03:03 65.98969 -40.16278 11438 ft 169 kts 105°
2026-05-06 03:03 65.98614 -40.13544 11427 ft 170 kts 105°
2026-05-06 03:03 65.98254 -40.10787 11431 ft 170 kts 105°
2026-05-06 03:03 65.97893 -40.08012 11430 ft 170 kts 105°
2026-05-06 03:04 65.97533 -40.05254 11432 ft 170 kts 105°
2026-05-06 03:04 65.97176 -40.02526 11439 ft 170 kts 105°
2026-05-06 03:04 65.96807 -39.99735 11425 ft 171 kts 105°
2026-05-06 03:04 65.96448 -39.97002 11418 ft 171 kts 107°
2026-05-06 03:05 65.96069 -39.94210 11427 ft 171 kts 106°
2026-05-06 03:05 65.95695 -39.91479 11417 ft 171 kts 106°
2026-05-06 03:05 65.95320 -39.88703 11413 ft 171 kts 105°
2026-05-06 03:05 65.94947 -39.85959 11410 ft 171 kts 106°
2026-05-06 03:06 65.94571 -39.83186 11421 ft 171 kts 106°
2026-05-06 03:06 65.94198 -39.80454 11434 ft 170 kts 106°
2026-05-06 03:06 65.93823 -39.77696 11421 ft 171 kts 105°
2026-05-06 03:06 65.93442 -39.74923 11419 ft 171 kts 106°
2026-05-06 03:07 65.93070 -39.72198 11427 ft 171 kts 106°
2026-05-06 03:07 65.92690 -39.69428 11423 ft 171 kts 106°
2026-05-06 03:07 65.92310 -39.66672 11413 ft 171 kts 105°
2026-05-06 03:07 65.91935 -39.63957 11402 ft 171 kts 105°
2026-05-06 03:08 65.91557 -39.61203 11414 ft 170 kts 105°
2026-05-06 03:08 65.91177 -39.58445 11407 ft 170 kts 105°
2026-05-06 03:08 65.90800 -39.55730 11405 ft 171 kts 105°
2026-05-06 03:08 65.90418 -39.52969 11406 ft 170 kts 105°
2026-05-06 03:09 65.90037 -39.50223 11405 ft 170 kts 105°
2026-05-06 03:09 65.89656 -39.47496 11401 ft 170 kts 105°
2026-05-06 03:09 65.89277 -39.44764 11398 ft 170 kts 105°
2026-05-06 03:09 65.88897 -39.42038 11399 ft 170 kts 105°
2026-05-06 03:10 65.88518 -39.39320 11400 ft 169 kts 105°
2026-05-06 03:10 65.88136 -39.36597 11414 ft 169 kts 105°
2026-05-06 03:10 65.87756 -39.33885 11429 ft 168 kts 105°
2026-05-06 03:10 65.87378 -39.31185 11446 ft 167 kts 106°
2026-05-06 03:11 65.87003 -39.28512 11448 ft 167 kts 106°
2026-05-06 03:11 65.86625 -39.25820 11457 ft 167 kts 106°
2026-05-06 03:11 65.86249 -39.23156 11460 ft 168 kts 106°
2026-05-06 03:11 65.85868 -39.20444 11467 ft 168 kts 105°
2026-05-06 03:12 65.85488 -39.17766 11454 ft 169 kts 106°
2026-05-06 03:12 65.85102 -39.15044 11433 ft 169 kts 105°
2026-05-06 03:12 65.84718 -39.12335 11430 ft 169 kts 105°
2026-05-06 03:12 65.84337 -39.09657 11419 ft 169 kts 105°
2026-05-06 03:13 65.83949 -39.06926 11419 ft 168 kts 105°
2026-05-06 03:13 65.83570 -39.04262 11408 ft 168 kts 105°
2026-05-06 03:13 65.83186 -39.01569 11405 ft 168 kts 105°
2026-05-06 03:13 65.82803 -38.98896 11405 ft 168 kts 105°
2026-05-06 03:14 65.82419 -38.96202 11405 ft 168 kts 105°
2026-05-06 03:14 65.82037 -38.93533 11412 ft 168 kts 105°
2026-05-06 03:14 65.81649 -38.90832 11416 ft 168 kts 105°
2026-05-06 03:14 65.81265 -38.88160 11431 ft 168 kts 105°
2026-05-06 03:15 65.80879 -38.85489 11436 ft 168 kts 106°
2026-05-06 03:15 65.80492 -38.82798 11431 ft 169 kts 105°
2026-05-06 03:15 65.80101 -38.80101 11430 ft 169 kts 105°
2026-05-06 03:15 65.79714 -38.77464 11420 ft 161 kts 106°
2026-05-06 03:16 65.79344 -38.74936 11392 ft 156 kts 105°
2026-05-06 03:16 65.78985 -38.72432 11371 ft 158 kts 104°
2026-05-06 03:16 65.78619 -38.69876 11347 ft 163 kts 104°
2026-05-06 03:16 65.78239 -38.67260 11228 ft 166 kts 105°
2026-05-06 03:17 65.77851 -38.64602 11101 ft 165 kts 105°
2026-05-06 03:17 65.77468 -38.61989 10988 ft 165 kts 106°
2026-05-06 03:17 65.77082 -38.59348 10854 ft 165 kts 106°
2026-05-06 03:17 65.76701 -38.56732 10714 ft 166 kts 106°
2026-05-06 03:18 65.76316 -38.54115 10593 ft 165 kts 106°
2026-05-06 03:18 65.75928 -38.51482 10470 ft 164 kts 106°
2026-05-06 03:18 65.75545 -38.48886 10339 ft 164 kts 106°
2026-05-06 03:18 65.75159 -38.46270 10215 ft 164 kts 106°
2026-05-06 03:19 65.74777 -38.43683 10083 ft 163 kts 106°
2026-05-06 03:19 65.74393 -38.41092 9941 ft 162 kts 106°
2026-05-06 03:19 65.74017 -38.38533 9769 ft 162 kts 106°
2026-05-06 03:19 65.73637 -38.35973 9627 ft 161 kts 106°
2026-05-06 03:20 65.72886 -38.30908 9368 ft 159 kts 107°
2026-05-06 03:20 65.72512 -38.28390 9231 ft 159 kts 107°
2026-05-06 03:20 65.72141 -38.25889 9102 ft 158 kts 107°
2026-05-06 03:21 65.71764 -38.23357 8986 ft 157 kts 108°
2026-05-06 03:21 65.71395 -38.20908 8902 ft 153 kts 107°
2026-05-06 03:21 65.71040 -38.18537 8861 ft 143 kts 107°
2026-05-06 03:21 65.70705 -38.16291 8726 ft 139 kts 107°
2026-05-06 03:22 65.70379 -38.14091 8612 ft 139 kts 107°
2026-05-06 03:22 65.70048 -38.11868 8495 ft 141 kts 107°
2026-05-06 03:22 65.69713 -38.09636 8385 ft 142 kts 107°
2026-05-06 03:22 65.69370 -38.07355 8251 ft 145 kts 108°
2026-05-06 03:23 65.69026 -38.05063 8099 ft 146 kts 108°
2026-05-06 03:23 65.68675 -38.02748 7958 ft 147 kts 108°
2026-05-06 03:23 65.68321 -38.00411 7784 ft 147 kts 108°
2026-05-06 03:23 65.67974 -37.98106 7574 ft 146 kts 108°
2026-05-06 03:24 65.67625 -37.95808 7412 ft 144 kts 108°
2026-05-06 03:24 65.67281 -37.93531 7262 ft 143 kts 108°
2026-05-06 03:24 65.66939 -37.91274 7089 ft 143 kts 108°
2026-05-06 03:24 65.66600 -37.89040 6951 ft 141 kts 108°
2026-05-06 03:25 65.66264 -37.86837 6871 ft 138 kts 108°
2026-05-06 03:25 65.65933 -37.84665 6816 ft 137 kts 108°
2026-05-06 03:25 65.65606 -37.82511 6745 ft 137 kts 108°
2026-05-06 03:25 65.65277 -37.80354 6631 ft 138 kts 108°
2026-05-06 03:26 65.64942 -37.78168 6538 ft 138 kts 108°
2026-05-06 03:26 65.64608 -37.75982 6424 ft 140 kts 108°
2026-05-06 03:26 65.64265 -37.73743 6305 ft 142 kts 108°
2026-05-06 03:26 65.63919 -37.71500 6173 ft 144 kts 109°
2026-05-06 03:27 65.63269 -37.69708 6017 ft 147 kts 146°
2026-05-06 03:27 65.62382 -37.68554 5970 ft 143 kts 153°
2026-05-06 03:27 65.61494 -37.67587 5971 ft 138 kts 154°
2026-05-06 03:27 65.60619 -37.66667 5881 ft 141 kts 154°
2026-05-06 03:28 65.59731 -37.65738 5799 ft 133 kts 154°
2026-05-06 03:28 65.58853 -37.64816 5477 ft 142 kts 154°
2026-05-06 03:28 65.57960 -37.63884 5140 ft 139 kts 156°
2026-05-06 03:28 65.57100 -37.62989 4945 ft 127 kts 155°
2026-05-06 03:29 65.56310 -37.62167 4769 ft 123 kts 155°
2026-05-06 03:29 65.55533 -37.61353 4478 ft 123 kts 155°
2026-05-06 03:29 65.54745 -37.60531 4177 ft 124 kts 155°
2026-05-06 03:29 65.53971 -37.59677 3883 ft 124 kts 147°
2026-05-06 03:30 65.53509 -37.58003 3582 ft 120 kts 100°
2026-05-06 03:30 65.53571 -37.56134 3491 ft 106 kts 70°
2026-05-06 03:30 65.53806 -37.54465 3501 ft 105 kts 65°
2026-05-06 03:30 65.54076 -37.52840 3481 ft 106 kts 64°
2026-05-06 03:31 65.54359 -37.51191 3435 ft 106 kts 64°
2026-05-06 03:31 65.54646 -37.49549 3391 ft 106 kts 63°
2026-05-06 03:31 65.54943 -37.47883 3260 ft 112 kts 63°
2026-05-06 03:31 65.55241 -37.46186 3095 ft 105 kts 64°
2026-05-06 03:32 65.55512 -37.44624 2946 ft 94 kts 64°
2026-05-06 03:32 65.55753 -37.43251 2806 ft 86 kts 63°
2026-05-06 03:32 65.55983 -37.41948 2662 ft 82 kts 63°
2026-05-06 03:32 65.56110 -37.40607 2550 ft 82 kts 77°
2026-05-06 03:33 65.56181 -37.39235 2434 ft 82 kts 78°
2026-05-06 03:33 65.56242 -37.37877 2319 ft 82 kts 78°
2026-05-06 03:33 65.56303 -37.36506 2201 ft 82 kts 78°
2026-05-06 03:33 65.56365 -37.35131 2078 ft 83 kts 78°
2026-05-06 03:34 65.56428 -37.33738 1955 ft 84 kts 79°
2026-05-06 03:34 65.56490 -37.32326 1830 ft 84 kts 79°
2026-05-06 03:34 65.56553 -37.30925 1703 ft 85 kts 79°
2026-05-06 03:34 65.56616 -37.29496 1575 ft 85 kts 81°
2026-05-06 03:35 65.56678 -37.28074 1450 ft 86 kts 81°
2026-05-06 03:35 65.56742 -37.26617 1319 ft 87 kts 81°
2026-05-06 03:35 65.56806 -37.25164 1190 ft 87 kts 82°
2026-05-06 03:35 65.56869 -37.23737 1060 ft 86 kts 83°
2026-05-06 03:36 65.56931 -37.22298 930 ft 85 kts 83°
2026-05-06 03:36 65.57004 -37.20867 792 ft 86 kts 83°
2026-05-06 03:36 65.57072 -37.19438 655 ft 86 kts 85°
2026-05-06 03:36 65.57136 -37.18023 496 ft 85 kts 85°
2026-05-06 03:37 65.57214 -37.16626 330 ft 85 kts 80°
2026-05-06 03:37 65.57240 -37.15215 167 ft 83 kts 83°
2026-05-06 03:37 65.57304 -37.13858 51 ft 82 kts 83°
2026-05-06 03:37 65.57353 -37.12608 4 ft 60 kts 88°
2026-05-06 03:38 65.57378 -37.11954 4 ft 20 kts 87°
2026-05-06 03:38 65.57388 -37.11691 4 ft 15 kts 24°
2026-05-06 03:38 65.57392 -37.11832 4 ft 9 kts 257°
2026-05-06 03:38 65.57383 -37.12016 4 ft 12 kts 264°
2026-05-06 03:39 65.57370 -37.12243 4 ft 14 kts 257°
2026-05-06 03:39 65.57359 -37.12499 4 ft 16 kts 262°
2026-05-06 03:39 65.57346 -37.12774 4 ft 17 kts 261°
2026-05-06 03:39 65.57332 -37.13065 4 ft 15 kts 256°
2026-05-06 03:40 65.57319 -37.13238 4 ft 10 kts 263°
2026-05-06 03:40 65.57314 -37.13401 4 ft 8 kts 290°
2026-05-06 03:40 65.57362 -37.13448 4 ft 5 kts
2026-05-06 03:40 65.57365 -37.13448 4 ft 0 kts
2026-05-06 03:41 65.57373 -37.13445 4 ft 3 kts
2026-05-06 03:41 65.57398 -37.13444 4 ft 3 kts 357°
2026-05-06 03:42 65.57417 -37.13448 4 ft 2 kts 354°
2026-05-06 03:42 65.57427 -37.13463 4 ft 2 kts 303°
2026-05-06 03:42 65.57429 -37.13470 4 ft 0 kts 290°
2026-05-06 03:42 65.57430 -37.13480 4 ft 0 kts 289°
2026-05-06 03:43 65.57430 -37.13482 4 ft 0 kts 289°